Location: Oulou
(10.7667°N, 12.5167°W)
Time: 12:26:25
(UTC+00:00)

Cosmos 962 Rocket - Pass Details

Date: 20 September 2019
Orbit: 951 x 999 km, 82.9° (Epoch: 20 October)

Event Time Altitude Azimuth Distance (km) Brightness Sun altitude
Rises 20:32:47 0° 359° (N) 3,699 7.6 -26.6°
Reaches altitude 10° 20:35:18 10° 0° (N) 2,754 6.9 -27.2°
Enters shadow 20:41:19 75° 54° (NE) 1,030 4.4 -28.7°
